Regional Weather Roundup
Issued by NWS

Home | Current Version | Previous Version | Text Only | Print | Product List | Glossary On
Versions: 1 2 3 4 5 6 7 8 9 10 11 12 13 14 15 16 17 18 19 20 21 22 23 24 25 26 27
000
ASUS46 KPQR 201510
RWROR

OREGON REGIONAL WEATHER ROUNDUP
NATIONAL WEATHER SERVICE PORTLAND OR
800 AM PDT SUN APR 20 2014

NOTE: "FAIR" INDICATES FEW OR NO CLOUDS BELOW 12,000 FEET WITH
NO SIGNIFICANT WEATHER AND/OR OBSTRUCTIONS TO VISIBILITY.

ORZ001>013-201600-
NORTHWEST OREGON


CITY           SKY/WX    TMP DP  RH WIND       PRES   REMARKS
ASTORIA        CLOUDY    45  42  89 CALM      30.26S
NEWPORT        SUNNY     45  45 100 SE3       30.30S
PORTLAND       PTSUNNY   47  44  90 CALM      30.31R
VANCOUVER WA   PTSUNNY   47  43  86 CALM      30.31R
SCAPPOOSE      CLOUDY    45  43  93 CALM      30.30R
HILLSBORO      PTSUNNY   42  40  92 CALM      30.30R
AURORA         SUNNY     42  42 100 CALM      30.31R
MCMINNVILLE    CLOUDY    43  42  97 N3        30.31R
SALEM          SUNNY     45  42  89 CALM      30.29R
CORVALLIS        N/A     39  37  93 CALM      30.30S
EUGENE         FOG       42  41  96 S3        30.30R VSB 1/8
$$

ORZ021-028-201600-
SOUTHWEST OREGON


CITY           SKY/WX    TMP DP  RH WIND       PRES   REMARKS
NORTH BEND     MOSUNNY   45  45 100 SE7       30.30R
BROOKINGS      SUNNY     42  42 100 CALM      30.29R FOG
ROSEBURG       FOG       40  39  97 CALM      30.31R VSB 1/4
SEXTON SUMMIT  MOSUNNY   41  36  82 SE8       30.23R
MEDFORD        MOSUNNY   42  38  85 E3        30.29R
$$

ORZ009-041-201600-
COLUMBIA GORGE


CITY           SKY/WX    TMP DP  RH WIND       PRES   REMARKS
TROUTDALE      MOSUNNY   47  43  86 CALM      30.30R
$$

ORZ029>031-042>050-061>064-201600-
EASTERN OREGON


CITY           SKY/WX    TMP DP  RH WIND       PRES   REMARKS
REDMOND        CLOUDY    35  28  75 SE7       30.27R WCI  29
BEND           CLOUDY    37  27  65 S7        30.27R WCI  32
KLAMATH FALLS  MOSUNNY   32  30  92 CALM      30.27S
LAKEVIEW       MOSUNNY   34  25  69 N6        30.29S WCI  29
HERMISTON      MOSUNNY   50  38  63 S7        30.31R
PENDLETON      MOSUNNY   44  34  67 S5        30.30R
JOHN DAY       SUNNY     37  30  75 E5        30.29R WCI  34
MEACHAM        CLOUDY    40  32  73 CALM      30.27R
LA GRANDE      CLOUDY    46  28  49 NW6       30.29R
BAKER CITY     SUNNY     40  33  76 CALM      30.29R
BURNS          MOSUNNY   36  28  73 CALM      30.30R
ROME             N/A     46  25  43 NE10      30.28R
ONTARIO        SUNNY     47  31  53 SW10      30.30R
$$



USA.gov is the U.S. government's official web portal to all federal, state and local government web resources and services.